Time,TemperatureF,DewpointF,PressureIn,WindDirection,WindDirectionDegrees,WindSpeedMPH,WindSpeedGustMPH,Humidity,HourlyPrecipIn,Conditions,Clouds,dailyrainin,SolarRadiationWatts/m^2,SoftwareType,DateUTC
2013-02-11 00:00:00,44.7,32.1,29.90,South,177,13.0,13.0,61,0.00,,-RA,0.00,0.00,VWS V14.01,2013-02-11 05:00:00,
2013-02-11 00:05:00,45.0,32.4,29.89,SE,142,5.0,6.0,61,0.00,,-RA,0.00,0.00,VWS V14.01,2013-02-11 05:05:00,
2013-02-11 00:10:00,45.0,32.4,29.89,SE,143,6.0,9.0,61,0.00,,-RA,0.00,0.00,VWS V14.01,2013-02-11 05:10:00,
2013-02-11 00:15:00,45.3,33.1,29.89,SE,130,5.0,13.0,62,0.00,,-RA,0.00,0.00,VWS V14.01,2013-02-11 05:15:00,
2013-02-11 00:20:00,45.4,33.2,29.90,SSE,167,13.0,17.0,62,0.00,,-RA,0.00,0.00,VWS V14.01,2013-02-11 05:20:00,
2013-02-11 00:25:00,45.5,34.0,29.90,SSW,196,4.0,12.0,64,0.00,,-RA,0.00,0.00,VWS V14.01,2013-02-11 05:25:00,
2013-02-11 00:30:00,45.5,34.4,29.90,South,175,9.0,12.0,65,0.00,,-RA,0.00,0.00,VWS V14.01,2013-02-11 05:30:00,
2013-02-11 00:35:00,45.5,34.8,29.89,South,183,11.0,11.0,66,0.00,,OVC029,0.00,0.00,VWS V14.01,2013-02-11 05:35:00,
2013-02-11 00:40:00,45.4,34.7,29.90,SSE,168,15.0,19.0,66,0.00,,OVC029,0.00,0.00,VWS V14.01,2013-02-11 05:40:00,
2013-02-11 00:45:00,45.4,35.1,29.89,SSW,198,7.0,12.0,67,0.00,,OVC029,0.00,0.00,VWS V14.01,2013-02-11 05:45:00,
2013-02-11 00:50:00,45.3,35.0,29.89,SSE,158,12.0,21.0,67,0.00,,OVC029,0.00,0.00,VWS V14.01,2013-02-11 05:50:00,
2013-02-11 00:55:00,45.2,34.9,29.88,SSE,163,6.0,19.0,67,0.00,,OVC029,0.00,0.00,VWS V14.01,2013-02-11 05:55:00,
2013-02-11 01:00:00,45.0,34.7,29.89,SSW,195,7.0,13.0,67,0.00,,,0.00,0.00,VWS V14.01,2013-02-11 06:00:00,
2013-02-11 01:01:00,45.0,34.7,29.89,SSE,167,5.0,13.0,67,0.00,,OVC029,0.00,0.00,VWS V14.01,2013-02-11 06:01:00,
2013-02-11 01:06:00,45.0,35.1,29.88,ESE,123,10.0,16.0,68,0.00,,OVC029,0.00,0.00,VWS V14.01,2013-02-11 06:06:00,
2013-02-11 01:10:00,45.0,35.5,29.88,SSE,153,6.0,13.0,69,0.00,,,0.00,0.00,VWS V14.01,2013-02-11 06:10:00,
2013-02-11 01:11:00,45.0,35.5,29.89,SSE,166,9.0,10.0,69,0.00,,OVC029,0.00,0.00,VWS V14.01,2013-02-11 06:11:00,
2013-02-11 01:16:00,45.0,35.5,29.89,SSE,163,8.0,18.0,69,0.00,,OVC029,0.00,0.00,VWS V14.01,2013-02-11 06:16:00,
2013-02-11 01:20:00,45.0,35.5,29.89,SSW,194,4.0,9.0,69,0.00,,,0.00,0.00,VWS V14.01,2013-02-11 06:20:00,
2013-02-11 01:21:00,45.0,35.5,29.89,South,189,7.0,11.0,69,0.00,,OVC029,0.00,0.00,VWS V14.01,2013-02-11 06:21:00,
2013-02-11 01:26:00,44.9,35.7,29.88,South,182,2.0,9.0,70,0.00,,OVC029,0.00,0.00,VWS V14.01,2013-02-11 06:26:00,
2013-02-11 01:30:00,44.8,36.0,29.88,SSE,167,7.0,9.0,71,0.00,,,0.00,0.00,VWS V14.01,2013-02-11 06:30:00,
2013-02-11 01:31:00,44.8,36.0,29.88,SSE,149,4.0,13.0,71,0.00,,OVC029,0.00,0.00,VWS V14.01,2013-02-11 06:31:00,
2013-02-11 01:36:00,44.9,36.1,29.87,South,180,5.0,12.0,71,0.00,,OVC026,0.00,0.00,VWS V14.01,2013-02-11 06:36:00,
2013-02-11 01:40:00,44.8,36.3,29.87,SW,216,4.0,14.0,72,0.00,,,0.00,0.00,VWS V14.01,2013-02-11 06:40:00,
2013-02-11 01:41:00,44.8,36.3,29.87,South,182,9.0,16.0,72,0.00,,OVC026,0.00,0.00,VWS V14.01,2013-02-11 06:41:00,
2013-02-11 01:46:00,44.7,36.6,29.86,SSW,211,7.0,17.0,73,0.00,,OVC026,0.00,0.00,VWS V14.01,2013-02-11 06:46:00,
2013-02-11 01:50:00,44.7,36.6,29.86,SSE,153,7.0,16.0,73,0.00,,,0.00,0.00,VWS V14.01,2013-02-11 06:50:00,
2013-02-11 01:51:00,44.7,36.6,29.86,SSE,161,11.0,13.0,73,0.00,,OVC026,0.00,0.00,VWS V14.01,2013-02-11 06:51:00,
2013-02-11 01:56:00,44.6,36.8,29.86,SSE,168,5.0,7.0,74,0.00,,OVC026,0.00,0.00,VWS V14.01,2013-02-11 06:56:00,
2013-02-11 02:00:00,44.4,36.7,29.86,SSE,154,11.0,11.0,74,0.00,,,0.00,0.00,VWS V14.01,2013-02-11 07:00:00,
2013-02-11 02:01:00,44.4,36.7,29.86,South,184,7.0,11.0,74,0.00,,OVC026,0.00,0.00,VWS V14.01,2013-02-11 07:01:00,
2013-02-11 02:06:00,44.1,36.7,29.86,South,185,4.0,10.0,75,0.00,,OVC026,0.00,0.00,VWS V14.01,2013-02-11 07:06:00,
2013-02-11 02:10:00,44.0,36.9,29.86,SSE,166,4.0,10.0,76,0.00,,,0.00,0.00,VWS V14.01,2013-02-11 07:10:00,
2013-02-11 02:11:00,44.0,37.3,29.86,SSE,160,7.0,11.0,77,0.00,,OVC026,0.00,0.00,VWS V14.01,2013-02-11 07:11:00,
2013-02-11 02:16:00,43.8,37.4,29.87,South,176,6.0,9.0,78,0.00,,OVC026,0.00,0.00,VWS V14.01,2013-02-11 07:16:00,
2013-02-11 02:20:00,43.6,37.2,29.87,South,184,10.0,12.0,78,0.00,,,0.00,0.00,VWS V14.01,2013-02-11 07:20:00,
2013-02-11 02:21:00,43.6,37.5,29.87,SSE,150,7.0,10.0,79,0.00,,OVC026,0.00,0.00,VWS V14.01,2013-02-11 07:21:00,
2013-02-11 02:26:00,43.4,37.3,29.87,SSE,155,12.0,12.0,79,0.00,,OVC026,0.00,0.00,VWS V14.01,2013-02-11 07:26:00,
2013-02-11 02:30:00,43.3,37.6,29.87,SSE,151,6.0,6.0,80,0.00,,,0.00,0.00,VWS V14.01,2013-02-11 07:30:00,
2013-02-11 02:31:00,43.3,37.6,29.87,SSE,161,4.0,10.0,80,0.00,,OVC022,0.00,0.00,VWS V14.01,2013-02-11 07:31:00,
2013-02-11 02:36:00,43.1,37.7,29.86,South,170,4.0,14.0,81,0.00,,OVC022,0.00,0.00,VWS V14.01,2013-02-11 07:36:00,
2013-02-11 02:40:00,43.0,37.9,29.86,SSE,167,5.0,5.0,82,0.00,,,0.00,0.00,VWS V14.01,2013-02-11 07:40:00,
2013-02-11 02:41:00,42.9,37.8,29.86,SSE,165,5.0,7.0,82,0.00,,OVC022,0.00,0.00,VWS V14.01,2013-02-11 07:41:00,
2013-02-11 02:46:00,42.8,38.0,29.86,South,172,3.0,6.0,83,0.00,,OVC022,0.00,0.00,VWS V14.01,2013-02-11 07:46:00,
2013-02-11 02:50:00,42.7,37.9,29.86,SSE,162,4.0,8.0,83,0.00,,,0.00,0.00,VWS V14.01,2013-02-11 07:50:00,
2013-02-11 02:51:00,42.6,37.8,29.87,WSW,241,6.0,6.0,83,0.00,,OVC022,0.00,0.00,VWS V14.01,2013-02-11 07:51:00,
2013-02-11 02:56:00,42.6,38.1,29.86,SSE,147,9.0,12.0,84,0.00,,OVC022,0.00,0.00,VWS V14.01,2013-02-11 07:56:00,
2013-02-11 03:00:00,42.6,38.1,29.86,SSE,161,0.0,6.0,84,0.00,,,0.00,0.00,VWS V14.01,2013-02-11 08:00:00,
2013-02-11 03:01:00,42.5,38.0,29.86,SSE,150,7.0,9.0,84,0.00,,OVC022,0.00,0.00,VWS V14.01,2013-02-11 08:01:00,
2013-02-11 03:06:00,42.5,38.0,29.85,SSE,161,7.0,10.0,84,0.00,,OVC022,0.00,0.00,VWS V14.01,2013-02-11 08:06:00,
2013-02-11 03:10:00,42.5,38.3,29.86,SSE,157,7.0,7.0,85,0.00,,,0.00,0.00,VWS V14.01,2013-02-11 08:10:00,
2013-02-11 03:11:00,42.5,38.3,29.86,SSE,163,8.0,8.0,85,0.00,,OVC022,0.00,0.00,VWS V14.01,2013-02-11 08:11:00,
2013-02-11 03:16:00,42.5,38.3,29.86,South,175,5.0,10.0,85,0.00,,OVC022,0.00,0.00,VWS V14.01,2013-02-11 08:16:00,
2013-02-11 03:20:00,42.4,38.2,29.85,South,172,2.0,6.0,85,0.00,,,0.00,0.00,VWS V14.01,2013-02-11 08:20:00,
2013-02-11 03:21:00,42.4,38.2,29.85,South,180,7.0,7.0,85,0.00,,OVC022,0.00,0.00,VWS V14.01,2013-02-11 08:21:00,
2013-02-11 03:26:00,42.4,38.2,29.85,SSW,201,5.0,6.0,85,0.00,,OVC022,0.00,0.00,VWS V14.01,2013-02-11 08:26:00,
2013-02-11 03:30:00,42.4,38.5,29.85,South,176,5.0,8.0,86,0.00,,,0.00,0.00,VWS V14.01,2013-02-11 08:30:00,
2013-02-11 03:31:00,42.4,38.5,29.85,SSW,201,6.0,8.0,86,0.00,,,0.00,0.00,VWS V14.01,2013-02-11 08:31:00,
2013-02-11 03:36:00,42.4,38.5,29.85,South,171,0.0,7.0,86,0.00,,,0.00,0.00,VWS V14.01,2013-02-11 08:36:00,
2013-02-11 03:40:00,43.3,39.7,29.82,South,191,9.0,12.0,87,0.00,,FEW250,0.00,0.00,VWS V14.01,2013-02-11 08:40:00,
2013-02-11 03:41:00,42.4,38.5,29.84,SSE,151,3.0,8.0,86,0.00,,,0.00,0.00,VWS V14.01,2013-02-11 08:41:00,
2013-02-11 03:46:00,42.5,38.6,29.84,South,179,3.0,11.0,86,0.00,,,0.00,0.00,VWS V14.01,2013-02-11 08:46:00,
2013-02-11 03:50:00,42.5,38.6,29.84,South,184,3.0,6.0,86,0.00,,,0.00,0.00,VWS V14.01,2013-02-11 08:50:00,
2013-02-11 03:51:00,42.5,38.6,29.84,SSE,148,6.0,6.0,86,0.00,,,0.00,0.00,VWS V14.01,2013-02-11 08:51:00,
2013-02-11 03:56:00,42.6,38.7,29.83,SSE,164,3.0,10.0,86,0.00,,,0.00,0.00,VWS V14.01,2013-02-11 08:56:00,
2013-02-11 04:00:00,42.6,38.7,29.83,SSW,209,4.0,9.0,86,0.00,,,0.00,0.00,VWS V14.01,2013-02-11 09:00:00,
2013-02-11 04:01:00,42.7,38.8,29.83,SW,220,2.0,6.0,86,0.00,,,0.00,0.00,VWS V14.01,2013-02-11 09:01:00,
2013-02-11 04:06:00,42.7,39.1,29.83,South,178,8.0,14.0,87,0.00,,,0.00,0.00,VWS V14.01,2013-02-11 09:06:00,
2013-02-11 04:10:00,42.7,39.1,29.82,South,175,12.0,12.0,87,0.00,,,0.00,0.00,VWS V14.01,2013-02-11 09:10:00,
2013-02-11 04:11:00,42.8,39.2,29.83,South,170,4.0,10.0,87,0.00,,,0.00,0.00,VWS V14.01,2013-02-11 09:11:00,
2013-02-11 04:16:00,42.8,39.2,29.82,SSE,150,8.0,10.0,87,0.00,,,0.00,0.00,VWS V14.01,2013-02-11 09:16:00,
2013-02-11 04:20:00,42.9,39.3,29.82,SSE,166,5.0,11.0,87,0.00,,,0.00,0.00,VWS V14.01,2013-02-11 09:20:00,
2013-02-11 04:22:00,42.9,39.3,29.82,South,191,4.0,7.0,87,0.00,,,0.00,0.00,VWS V14.01,2013-02-11 09:22:00,
2013-02-11 04:27:00,43.0,39.4,29.82,SSE,168,5.0,10.0,87,0.00,,,0.00,0.00,VWS V14.01,2013-02-11 09:27:00,
2013-02-11 04:30:00,43.1,39.5,29.82,SSE,159,3.0,9.0,87,0.00,,,0.00,0.00,VWS V14.01,2013-02-11 09:30:00,
2013-02-11 04:32:00,43.0,39.4,29.83,South,178,3.0,9.0,87,0.00,,,0.00,0.00,VWS V14.01,2013-02-11 09:32:00,
2013-02-11 04:37:00,43.2,39.6,29.82,South,175,8.0,14.0,87,0.00,,,0.00,0.00,VWS V14.01,2013-02-11 09:37:00,
2013-02-11 04:40:00,45.0,41.4,29.80,South,186,8.0,11.0,87,0.00,,FEW250,0.00,0.00,VWS V14.01,2013-02-11 09:40:00,
2013-02-11 04:42:00,43.4,39.8,29.82,South,171,5.0,9.0,87,0.00,,,0.00,0.00,VWS V14.01,2013-02-11 09:42:00,
2013-02-11 04:47:00,43.5,39.9,29.82,SSE,148,5.0,7.0,87,0.00,,,0.00,0.00,VWS V14.01,2013-02-11 09:47:00,
2013-02-11 04:50:00,45.2,41.6,29.79,SE,141,9.0,13.0,87,0.00,,FEW250,0.00,0.00,VWS V14.01,2013-02-11 09:50:00,
2013-02-11 04:52:00,43.6,40.0,29.82,SW,214,10.0,10.0,87,0.00,,,0.00,0.00,VWS V14.01,2013-02-11 09:52:00,
2013-02-11 04:57:00,43.8,40.2,29.82,South,177,2.0,7.0,87,0.00,,,0.00,0.00,VWS V14.01,2013-02-11 09:57:00,
2013-02-11 05:00:00,43.8,40.2,29.82,SSW,206,2.0,10.0,87,0.00,,,0.00,0.00,VWS V14.01,2013-02-11 10:00:00,
2013-02-11 05:02:00,43.9,40.3,29.81,SSW,201,4.0,8.0,87,0.00,,,0.00,0.00,VWS V14.01,2013-02-11 10:02:00,
2013-02-11 05:07:00,44.2,40.6,29.81,WSW,237,1.0,6.0,87,0.00,,,0.00,0.00,VWS V14.01,2013-02-11 10:07:00,
2013-02-11 05:10:00,44.3,40.7,29.82,SSE,154,7.0,7.0,87,0.00,,,0.00,0.00,VWS V14.01,2013-02-11 10:10:00,
2013-02-11 05:12:00,44.4,40.8,29.82,WSW,244,2.0,7.0,87,0.00,,,0.00,0.00,VWS V14.01,2013-02-11 10:12:00,
2013-02-11 05:17:00,44.5,40.9,29.82,SSW,200,3.0,9.0,87,0.00,,,0.00,0.00,VWS V14.01,2013-02-11 10:17:00,
2013-02-11 05:20:00,44.6,41.0,29.82,SSE,168,8.0,8.0,87,0.00,,,0.00,0.00,VWS V14.01,2013-02-11 10:20:00,
2013-02-11 05:22:00,44.7,41.1,29.81,SW,236,10.0,10.0,87,0.00,,,0.00,0.00,VWS V14.01,2013-02-11 10:22:00,
2013-02-11 05:27:00,45.0,41.4,29.81,South,180,1.0,6.0,87,0.00,,,0.00,0.00,VWS V14.01,2013-02-11 10:27:00,
2013-02-11 05:30:00,45.0,41.4,29.80,South,172,6.0,10.0,87,0.00,,,0.00,0.00,VWS V14.01,2013-02-11 10:30:00,
2013-02-11 05:32:00,45.0,41.4,29.81,SSW,199,4.0,8.0,87,0.00,,,0.00,0.00,VWS V14.01,2013-02-11 10:32:00,
2013-02-11 05:37:00,45.0,41.4,29.80,SSE,167,5.0,7.0,87,0.00,,,0.00,0.00,VWS V14.01,2013-02-11 10:37:00,
2013-02-11 05:40:00,45.0,41.4,29.80,South,186,8.0,11.0,87,0.00,,,0.00,0.00,VWS V14.01,2013-02-11 10:40:00,
2013-02-11 05:42:00,45.0,41.4,29.80,SSW,195,4.0,12.0,87,0.00,,,0.00,0.00,VWS V14.01,2013-02-11 10:42:00,
2013-02-11 05:47:00,45.1,41.5,29.80,SSE,163,3.0,8.0,87,0.00,,,0.00,0.00,VWS V14.01,2013-02-11 10:47:00,
2013-02-11 05:50:00,45.2,41.6,29.79,SE,141,9.0,13.0,87,0.00,,,0.00,0.00,VWS V14.01,2013-02-11 10:50:00,
2013-02-11 05:52:00,45.2,41.6,29.79,South,190,6.0,13.0,87,0.00,,,0.00,0.00,VWS V14.01,2013-02-11 10:52:00,
2013-02-11 05:57:00,45.2,41.6,29.79,South,179,8.0,10.0,87,0.00,,,0.00,0.00,VWS V14.01,2013-02-11 10:57:00,
2013-02-11 06:00:00,46.0,42.3,29.78,SSW,197,6.0,14.0,87,0.00,,FEW250,0.00,0.00,VWS V14.01,2013-02-11 11:00:00,
2013-02-11 06:02:00,45.3,41.7,29.79,SSW,207,3.0,10.0,87,0.00,,,0.00,0.00,VWS V14.01,2013-02-11 11:02:00,
2013-02-11 06:07:00,45.2,41.6,29.79,South,179,7.0,9.0,87,0.00,,,0.00,0.00,VWS V14.01,2013-02-11 11:07:00,
2013-02-11 06:10:00,45.2,41.6,29.79,SSE,153,8.0,14.0,87,0.00,,,0.00,0.00,VWS V14.01,2013-02-11 11:10:00,
2013-02-11 06:12:00,45.3,41.7,29.79,SW,218,8.0,14.0,87,0.00,,,0.00,0.00,VWS V14.01,2013-02-11 11:12:00,
2013-02-11 06:17:00,45.4,41.8,29.79,SSE,159,3.0,8.0,87,0.00,,,0.00,0.00,VWS V14.01,2013-02-11 11:17:00,
2013-02-11 06:20:00,46.1,42.2,29.77,SSE,166,6.0,7.0,86,0.00,,FEW250,0.00,0.00,VWS V14.01,2013-02-11 11:20:00,
2013-02-11 06:22:00,45.3,41.7,29.80,SW,217,4.0,13.0,87,0.00,,,0.00,0.00,VWS V14.01,2013-02-11 11:22:00,
2013-02-11 06:27:00,45.4,41.8,29.80,South,185,13.0,16.0,87,0.00,,,0.00,0.00,VWS V14.01,2013-02-11 11:27:00,
2013-02-11 06:30:00,45.5,41.9,29.79,SSW,212,3.0,15.0,87,0.00,,,0.00,0.00,VWS V14.01,2013-02-11 11:30:00,
2013-02-11 06:32:00,45.5,41.9,29.79,SW,219,2.0,8.0,87,0.00,,,0.00,0.00,VWS V14.01,2013-02-11 11:32:00,
2013-02-11 06:37:00,45.6,42.0,29.78,SSE,168,9.0,11.0,87,0.00,,,0.00,0.00,VWS V14.01,2013-02-11 11:37:00,
2013-02-11 06:40:00,45.5,41.6,29.77,SSE,167,1.0,10.0,86,0.00,,FEW250,0.00,12.00,VWS V14.01,2013-02-11 11:40:00,
2013-02-11 06:42:00,45.7,42.1,29.78,SW,227,7.0,11.0,87,0.00,,,0.00,0.00,VWS V14.01,2013-02-11 11:42:00,
2013-02-11 06:47:00,45.7,42.1,29.79,South,180,8.0,9.0,87,0.00,,,0.00,0.00,VWS V14.01,2013-02-11 11:47:00,
2013-02-11 06:50:00,45.8,42.2,29.79,WSW,247,0.0,10.0,87,0.00,,,0.00,0.00,VWS V14.01,2013-02-11 11:50:00,
2013-02-11 06:52:00,45.9,42.3,29.78,SSW,195,2.0,13.0,87,0.00,,,0.00,0.00,VWS V14.01,2013-02-11 11:52:00,
2013-02-11 06:57:00,45.9,42.3,29.78,SE,146,7.0,12.0,87,0.00,,,0.00,0.00,VWS V14.01,2013-02-11 11:57:00,
2013-02-11 07:00:00,46.0,42.3,29.78,SSW,197,6.0,14.0,87,0.00,,,0.00,0.00,VWS V14.01,2013-02-11 12:00:00,
2013-02-11 07:02:00,45.9,42.0,29.78,South,170,2.0,8.0,86,0.00,,,0.00,0.00,VWS V14.01,2013-02-11 12:02:00,
2013-02-11 07:07:00,46.0,42.0,29.78,South,188,8.0,11.0,86,0.00,,,0.00,0.00,VWS V14.01,2013-02-11 12:07:00,
2013-02-11 07:10:00,45.4,41.5,29.76,South,182,2.0,9.0,86,0.00,,FEW250,0.00,25.00,VWS V14.01,2013-02-11 12:10:00,
2013-02-11 07:12:00,46.0,42.0,29.78,South,188,4.0,12.0,86,0.00,,,0.00,0.00,VWS V14.01,2013-02-11 12:12:00,
2013-02-11 07:17:00,46.1,42.2,29.77,SSE,149,15.0,17.0,86,0.00,,,0.00,0.00,VWS V14.01,2013-02-11 12:17:00,
2013-02-11 07:20:00,46.1,42.2,29.77,SSE,166,6.0,7.0,86,0.00,,,0.00,0.00,VWS V14.01,2013-02-11 12:20:00,
2013-02-11 07:22:00,46.0,42.0,29.77,SSW,196,4.0,10.0,86,0.00,,,0.00,0.00,VWS V14.01,2013-02-11 12:22:00,
2013-02-11 07:27:00,45.8,41.9,29.77,SSE,168,5.0,10.0,86,0.00,,,0.00,5.00,VWS V14.01,2013-02-11 12:27:00,
2013-02-11 07:30:00,46.0,41.8,29.77,South,170,3.0,6.0,85,0.00,,FEW250,0.00,47.00,VWS V14.01,2013-02-11 12:30:00,
2013-02-11 07:32:00,45.6,41.7,29.77,SSE,157,3.0,7.0,86,0.00,,OVC010,0.00,7.00,VWS V14.01,2013-02-11 12:32:00,
2013-02-11 07:37:00,45.5,41.6,29.77,South,186,3.0,6.0,86,0.00,,OVC010,0.00,11.00,VWS V14.01,2013-02-11 12:37:00,
2013-02-11 07:40:00,45.5,41.6,29.77,SSE,167,1.0,10.0,86,0.00,,,0.00,12.00,VWS V14.01,2013-02-11 12:40:00,
2013-02-11 07:42:00,45.4,41.2,29.77,South,183,7.0,7.0,85,0.00,,OVC010,0.00,16.00,VWS V14.01,2013-02-11 12:42:00,
2013-02-11 07:47:00,45.3,41.1,29.77,South,171,5.0,11.0,85,0.00,,OVC010,0.00,16.00,VWS V14.01,2013-02-11 12:47:00,
2013-02-11 07:50:00,45.3,41.4,29.76,South,182,3.0,12.0,86,0.00,,,0.00,21.00,VWS V14.01,2013-02-11 12:50:00,
2013-02-11 07:52:00,45.3,41.4,29.77,South,190,6.0,11.0,86,0.00,,OVC010,0.00,26.00,VWS V14.01,2013-02-11 12:52:00,
2013-02-11 07:57:00,45.4,41.5,29.77,SSE,159,4.0,9.0,86,0.00,,OVC010,0.00,19.00,VWS V14.01,2013-02-11 12:57:00,
2013-02-11 08:00:00,47.9,43.0,29.76,SSE,161,1.0,5.0,83,0.00,,FEW250,0.00,90.00,VWS V14.01,2013-02-11 13:00:00,
2013-02-11 08:02:00,45.3,41.4,29.76,South,188,7.0,12.0,86,0.00,,OVC010,0.00,26.00,VWS V14.01,2013-02-11 13:02:00,
2013-02-11 08:07:00,45.4,41.5,29.76,SSW,196,4.0,6.0,86,0.00,,OVC010,0.00,37.00,VWS V14.01,2013-02-11 13:07:00,
2013-02-11 08:10:00,45.4,41.5,29.76,South,182,2.0,9.0,86,0.00,,,0.00,25.00,VWS V14.01,2013-02-11 13:10:00,
2013-02-11 08:12:00,45.4,41.5,29.76,SW,217,3.0,9.0,86,0.00,,OVC010,0.00,25.00,VWS V14.01,2013-02-11 13:12:00,
2013-02-11 08:17:00,45.4,41.5,29.77,SSW,209,0.0,6.0,86,0.00,,OVC010,0.00,30.00,VWS V14.01,2013-02-11 13:17:00,
2013-02-11 08:20:00,45.6,41.7,29.77,SSW,192,3.0,8.0,86,0.00,,,0.00,58.00,VWS V14.01,2013-02-11 13:20:00,
2013-02-11 08:22:00,45.7,41.8,29.77,South,190,5.0,6.0,86,0.00,,OVC010,0.00,33.00,VWS V14.01,2013-02-11 13:22:00,
2013-02-11 08:27:00,45.9,42.0,29.77,South,191,3.0,5.0,86,0.00,,OVC010,0.00,40.00,VWS V14.01,2013-02-11 13:27:00,
2013-02-11 08:30:00,46.0,41.8,29.77,South,170,3.0,6.0,85,0.00,,,0.00,47.00,VWS V14.01,2013-02-11 13:30:00,
2013-02-11 08:32:00,46.1,41.8,29.77,South,180,11.0,13.0,85,0.00,,BKN012,0.00,125.00,VWS V14.01,2013-02-11 13:32:00,
2013-02-11 08:37:00,46.5,42.2,29.77,South,172,10.0,13.0,85,0.00,,BKN012,0.00,53.00,VWS V14.01,2013-02-11 13:37:00,
2013-02-11 08:40:00,46.6,42.3,29.76,SW,227,3.0,7.0,85,0.00,,,0.00,49.00,VWS V14.01,2013-02-11 13:40:00,
2013-02-11 08:42:00,46.7,42.4,29.76,SW,219,7.0,11.0,85,0.00,,BKN012,0.00,77.00,VWS V14.01,2013-02-11 13:42:00,
2013-02-11 08:47:00,47.0,42.4,29.76,SSE,161,7.0,7.0,84,0.00,,BKN012,0.00,54.00,VWS V14.01,2013-02-11 13:47:00,
2013-02-11 08:50:00,47.0,42.4,29.76,SSW,213,3.0,7.0,84,0.00,,,0.00,58.00,VWS V14.01,2013-02-11 13:50:00,
2013-02-11 08:52:00,47.1,42.5,29.77,WSW,239,10.0,10.0,84,0.00,,BKN012,0.00,93.00,VWS V14.01,2013-02-11 13:52:00,
2013-02-11 08:57:00,47.7,42.8,29.76,SSE,157,2.0,9.0,83,0.00,,BKN012,0.00,128.00,VWS V14.01,2013-02-11 13:57:00,
2013-02-11 09:00:00,47.9,43.0,29.76,SSE,161,1.0,5.0,83,0.00,,,0.00,90.00,VWS V14.01,2013-02-11 14:00:00,
2013-02-11 09:02:00,47.9,42.7,29.76,South,180,3.0,9.0,82,0.00,,BKN012,0.00,77.00,VWS V14.01,2013-02-11 14:02:00,
2013-02-11 09:07:00,47.9,42.7,29.76,South,177,10.0,13.0,82,0.00,,BKN012,0.00,67.00,VWS V14.01,2013-02-11 14:07:00,
2013-02-11 09:10:00,48.0,42.8,29.76,SE,143,7.0,8.0,82,0.00,,,0.00,109.00,VWS V14.01,2013-02-11 14:10:00,
2013-02-11 09:12:00,48.2,42.7,29.76,SW,219,4.0,4.0,81,0.00,,BKN012,0.00,181.00,VWS V14.01,2013-02-11 14:12:00,
2013-02-11 09:17:00,48.7,43.1,29.76,SW,224,4.0,14.0,81,0.00,,BKN012,0.00,192.00,VWS V14.01,2013-02-11 14:17:00,
2013-02-11 09:20:00,48.9,43.3,29.76,SSW,196,8.0,11.0,81,0.00,,,0.00,176.00,VWS V14.01,2013-02-11 14:20:00,
2013-02-11 09:22:00,49.1,43.2,29.75,SSW,198,9.0,12.0,80,0.00,,BKN012,0.00,158.00,VWS V14.01,2013-02-11 14:22:00,
2013-02-11 09:27:00,49.3,43.1,29.75,SW,236,8.0,16.0,79,0.00,,BKN012,0.00,188.00,VWS V14.01,2013-02-11 14:27:00,
2013-02-11 09:30:00,49.4,43.2,29.75,WSW,240,4.0,10.0,79,0.00,,,0.00,207.00,VWS V14.01,2013-02-11 14:30:00,
2013-02-11 09:33:00,49.7,43.1,29.75,SSE,157,14.0,17.0,78,0.00,,BKN034,0.00,206.00,VWS V14.01,2013-02-11 14:33:00,
2013-02-11 09:38:00,50.0,43.1,29.74,SW,217,10.0,14.0,77,0.00,,BKN034,0.00,183.00,VWS V14.01,2013-02-11 14:38:00,
2013-02-11 09:40:00,50.1,43.2,29.74,SW,225,4.0,7.0,77,0.00,,,0.00,199.00,VWS V14.01,2013-02-11 14:40:00,
2013-02-11 09:43:00,50.2,42.9,29.74,WSW,239,7.0,11.0,76,0.00,,BKN034,0.00,127.00,VWS V14.01,2013-02-11 14:43:00,
2013-02-11 09:48:00,50.2,42.6,29.74,SSW,212,8.0,14.0,75,0.00,,BKN034,0.00,121.00,VWS V14.01,2013-02-11 14:48:00,
2013-02-11 09:50:00,50.2,42.6,29.73,South,177,15.0,22.0,75,0.00,,,0.00,169.00,VWS V14.01,2013-02-11 14:50:00,
2013-02-11 09:53:00,50.3,42.3,29.73,South,188,7.0,14.0,74,0.00,,BKN034,0.00,204.00,VWS V14.01,2013-02-11 14:53:00,
2013-02-11 09:58:00,50.3,42.3,29.73,SW,224,6.0,15.0,74,0.00,,BKN034,0.00,65.00,VWS V14.01,2013-02-11 14:58:00,
2013-02-11 10:00:00,50.2,42.6,29.73,WSW,240,4.0,11.0,75,0.00,,,0.00,47.00,VWS V14.01,2013-02-11 15:00:00,
2013-02-11 10:03:00,50.0,42.0,29.73,SSW,209,2.0,9.0,74,0.00,,BKN034,0.00,28.00,VWS V14.01,2013-02-11 15:03:00,
2013-02-11 10:08:00,49.8,41.9,29.74,West,274,4.0,7.0,74,0.00,,BKN034,0.00,18.00,VWS V14.01,2013-02-11 15:08:00,
2013-02-11 10:10:00,49.7,42.1,29.74,WSW,244,11.0,11.0,75,0.00,,,0.00,37.00,VWS V14.01,2013-02-11 15:10:00,
2013-02-11 10:13:00,49.3,41.7,29.74,West,267,9.0,16.0,75,0.00,,BKN034,0.00,14.00,VWS V14.01,2013-02-11 15:13:00,
2013-02-11 10:18:00,48.6,41.0,29.74,WSW,255,11.0,16.0,75,0.00,,BKN034,0.00,19.00,VWS V14.01,2013-02-11 15:18:00,
2013-02-11 10:20:00,48.4,41.2,29.74,West,270,15.0,19.0,76,0.01,,,0.01,26.00,VWS V14.01,2013-02-11 15:20:00,
2013-02-11 10:23:00,47.9,40.7,29.74,West,273,14.0,14.0,76,0.01,,BKN034,0.01,72.00,VWS V14.01,2013-02-11 15:23:00,
2013-02-11 10:28:00,47.5,40.7,29.74,SW,232,6.0,10.0,77,0.01,,BKN034,0.01,60.00,VWS V14.01,2013-02-11 15:28:00,
2013-02-11 10:30:00,47.4,40.6,29.74,West,264,7.0,10.0,77,0.01,,,0.01,60.00,VWS V14.01,2013-02-11 15:30:00,
2013-02-11 10:33:00,47.4,40.6,29.74,West,263,8.0,14.0,77,0.01,,BKN032,0.01,79.00,VWS V14.01,2013-02-11 15:33:00,
2013-02-11 10:38:00,47.4,40.2,29.74,WSW,248,7.0,13.0,76,0.01,,BKN032,0.01,56.00,VWS V14.01,2013-02-11 15:38:00,
2013-02-11 10:40:00,47.3,39.8,29.75,SW,235,6.0,12.0,75,0.01,,,0.01,53.00,VWS V14.01,2013-02-11 15:40:00,
2013-02-11 10:43:00,47.4,39.5,29.74,SW,228,13.0,22.0,74,0.01,,BKN032,0.01,79.00,VWS V14.01,2013-02-11 15:43:00,
2013-02-11 10:48:00,47.6,38.7,29.74,SSW,201,9.0,16.0,71,0.01,,BKN032,0.01,125.00,VWS V14.01,2013-02-11 15:48:00,
2013-02-11 10:50:00,48.5,35.7,29.75,NW,319,6.0,17.0,61,0.00,,FEW250,0.01,596.00,VWS V14.01,2013-02-11 15:50:00,
2013-02-11 10:53:00,47.7,38.0,29.75,WSW,238,9.0,15.0,69,0.01,,BKN032,0.01,229.00,VWS V14.01,2013-02-11 15:53:00,
2013-02-11 10:58:00,47.9,37.5,29.75,SSW,192,0.0,15.0,67,0.01,,BKN032,0.01,149.00,VWS V14.01,2013-02-11 15:58:00,
2013-02-11 11:00:00,48.0,38.0,29.75,SSW,200,7.0,13.0,68,0.01,,,0.01,125.00,VWS V14.01,2013-02-11 16:00:00,
2013-02-11 11:03:00,48.1,37.7,29.75,West,271,6.0,15.0,67,0.01,,BKN032,0.01,149.00,VWS V14.01,2013-02-11 16:03:00,
2013-02-11 11:08:00,48.6,37.8,29.75,WSW,256,10.0,19.0,66,0.01,,BKN032,0.01,148.00,VWS V14.01,2013-02-11 16:08:00,
2013-02-11 11:10:00,48.6,37.0,29.75,WNW,286,8.0,22.0,64,0.01,,,0.01,120.00,VWS V14.01,2013-02-11 16:10:00,
2013-02-11 11:13:00,48.6,37.0,29.75,WNW,293,4.0,19.0,64,0.01,,BKN032,0.01,144.00,VWS V14.01,2013-02-11 16:13:00,
2013-02-11 11:18:00,48.6,36.6,29.75,West,259,13.0,13.0,63,0.01,,BKN032,0.01,271.00,VWS V14.01,2013-02-11 16:18:00,
2013-02-11 11:20:00,48.7,36.7,29.75,WNW,283,7.0,17.0,63,0.01,,,0.01,271.00,VWS V14.01,2013-02-11 16:20:00,
2013-02-11 11:23:00,48.9,36.5,29.75,WSW,242,9.0,19.0,62,0.00,,BKN032,0.01,378.00,VWS V14.01,2013-02-11 16:23:00,
2013-02-11 11:28:00,48.8,36.0,29.75,SW,225,13.0,21.0,61,0.00,,BKN032,0.01,220.00,VWS V14.01,2013-02-11 16:28:00,
2013-02-11 11:30:00,48.8,36.0,29.75,WSW,250,16.0,18.0,61,0.00,,,0.01,257.00,VWS V14.01,2013-02-11 16:30:00,
2013-02-11 11:33:00,48.8,36.0,29.75,WSW,238,9.0,16.0,61,0.00,,-RA,0.01,218.00,VWS V14.01,2013-02-11 16:33:00,
2013-02-11 11:38:00,48.8,35.1,29.75,WSW,246,8.0,10.0,59,0.00,,-RA,0.01,267.00,VWS V14.01,2013-02-11 16:38:00,
2013-02-11 11:40:00,49.0,35.7,29.75,WSW,246,12.0,15.0,60,0.00,,,0.01,701.00,VWS V14.01,2013-02-11 16:40:00,
2013-02-11 11:43:00,49.2,35.9,29.75,West,279,8.0,19.0,60,0.00,,-RA,0.01,243.00,VWS V14.01,2013-02-11 16:43:00,
2013-02-11 11:48:00,48.6,35.4,29.75,West,273,6.0,19.0,60,0.00,,-RA,0.01,209.00,VWS V14.01,2013-02-11 16:48:00,
2013-02-11 11:50:00,48.5,35.7,29.75,NW,319,6.0,17.0,61,0.00,,,0.01,596.00,VWS V14.01,2013-02-11 16:50:00,
2013-02-11 11:53:00,48.5,35.7,29.75,WSW,239,10.0,10.0,61,0.00,,-RA,0.01,197.00,VWS V14.01,2013-02-11 16:53:00,
2013-02-11 11:58:00,47.8,34.6,29.76,WSW,250,18.0,20.0,60,0.00,,-RA,0.01,149.00,VWS V14.01,2013-02-11 16:58:00,
2013-02-11 12:00:00,47.6,34.8,29.75,West,272,14.0,18.0,61,0.00,,,0.01,149.00,VWS V14.01,2013-02-11 17:00:00,
2013-02-11 12:03:00,47.2,34.5,29.76,WSW,253,12.0,17.0,61,0.00,,-RA,0.01,186.00,VWS V14.01,2013-02-11 17:03:00,
2013-02-11 12:08:00,47.2,34.9,29.75,West,270,11.0,21.0,62,0.00,,-RA,0.01,519.00,VWS V14.01,2013-02-11 17:08:00,
2013-02-11 12:10:00,47.5,35.2,29.76,WNW,292,8.0,19.0,62,0.00,,,0.01,482.00,VWS V14.01,2013-02-11 17:10:00,
2013-02-11 12:13:00,48.1,34.9,29.76,SW,220,11.0,25.0,60,0.00,,-RA,0.01,557.00,VWS V14.01,2013-02-11 17:13:00,
2013-02-11 12:18:00,48.1,34.9,29.76,WNW,302,9.0,16.0,60,0.00,,-RA,0.01,568.00,VWS V14.01,2013-02-11 17:18:00,
2013-02-11 12:20:00,47.9,34.3,29.76,West,261,6.0,21.0,59,0.00,,,0.01,197.00,VWS V14.01,2013-02-11 17:20:00,
2013-02-11 12:23:00,47.5,34.3,29.76,WSW,240,6.0,13.0,60,0.00,,-RA,0.01,628.00,VWS V14.01,2013-02-11 17:23:00,
2013-02-11 12:28:00,47.4,34.2,29.76,West,271,16.0,16.0,60,0.00,,-RA,0.01,220.00,VWS V14.01,2013-02-11 17:28:00,
2013-02-11 12:30:00,47.3,34.1,29.76,WSW,244,14.0,14.0,60,0.00,,,0.01,418.00,VWS V14.01,2013-02-11 17:30:00,
2013-02-11 12:33:00,47.3,34.5,29.77,SSW,209,13.0,14.0,61,0.00,,BKN044,0.01,418.00,VWS V14.01,2013-02-11 17:33:00,
2013-02-11 12:38:00,46.7,33.6,29.76,West,261,8.0,15.0,60,0.00,,BKN044,0.01,278.00,VWS V14.01,2013-02-11 17:38:00,
2013-02-11 12:40:00,46.5,33.8,29.76,SW,232,10.0,21.0,61,0.00,,,0.01,269.00,VWS V14.01,2013-02-11 17:40:00,
2013-02-11 12:43:00,46.2,33.5,29.77,West,267,15.0,18.0,61,0.00,,BKN044,0.01,297.00,VWS V14.01,2013-02-11 17:43:00,
2013-02-11 12:48:00,46.7,34.4,29.77,West,259,9.0,15.0,62,0.00,,BKN044,0.01,714.00,VWS V14.01,2013-02-11 17:48:00,
2013-02-11 12:50:00,46.7,33.6,29.77,SSW,192,3.0,15.0,60,0.00,,,0.01,276.00,VWS V14.01,2013-02-11 17:50:00,
2013-02-11 12:53:00,46.3,33.2,29.77,WSW,241,9.0,20.0,60,0.00,,BKN044,0.01,179.00,VWS V14.01,2013-02-11 17:53:00,
2013-02-11 12:58:00,45.4,32.8,29.78,WSW,240,9.0,25.0,61,0.00,,BKN044,0.01,234.00,VWS V14.01,2013-02-11 17:58:00,
2013-02-11 13:00:00,45.2,32.6,29.78,West,269,9.0,16.0,61,0.00,,,0.01,244.00,VWS V14.01,2013-02-11 18:00:00,
2013-02-11 13:03:00,45.0,32.8,29.78,West,269,11.0,25.0,62,0.00,,BKN044,0.01,295.00,VWS V14.01,2013-02-11 18:03:00,
2013-02-11 13:08:00,44.5,31.9,29.78,NW,307,3.0,20.0,61,0.00,,BKN044,0.01,216.00,VWS V14.01,2013-02-11 18:08:00,
2013-02-11 13:10:00,44.4,31.8,29.78,WSW,254,8.0,16.0,61,0.00,,,0.01,248.00,VWS V14.01,2013-02-11 18:10:00,
2013-02-11 13:14:00,43.7,31.5,29.79,West,266,13.0,13.0,62,0.00,,BKN044,0.01,221.00,VWS V14.01,2013-02-11 18:14:00,
2013-02-11 13:19:00,42.7,31.4,29.79,WNW,287,3.0,14.0,64,0.00,,BKN044,0.01,199.00,VWS V14.01,2013-02-11 18:19:00,
2013-02-11 13:20:00,42.6,31.3,29.79,SSW,202,3.0,15.0,64,0.00,,,0.01,197.00,VWS V14.01,2013-02-11 18:20:00,
2013-02-11 13:24:00,42.3,31.0,29.78,WNW,282,10.0,13.0,64,0.00,,BKN044,0.01,274.00,VWS V14.01,2013-02-11 18:24:00,
2013-02-11 13:29:00,42.3,31.0,29.78,SW,221,12.0,16.0,64,0.00,,BKN044,0.01,206.00,VWS V14.01,2013-02-11 18:29:00,
2013-02-11 13:30:00,42.3,31.0,29.79,SW,217,18.0,21.0,64,0.00,,,0.01,220.00,VWS V14.01,2013-02-11 18:30:00,
2013-02-11 13:34:00,42.3,30.2,29.79,West,263,9.0,17.0,62,0.00,,BKN042,0.01,244.00,VWS V14.01,2013-02-11 18:34:00,
2013-02-11 13:39:00,42.3,30.2,29.79,WSW,249,12.0,14.0,62,0.00,,BKN042,0.01,241.00,VWS V14.01,2013-02-11 18:39:00,
2013-02-11 13:40:00,42.4,29.9,29.78,WSW,257,7.0,16.0,61,0.00,,,0.01,218.00,VWS V14.01,2013-02-11 18:40:00,
2013-02-11 13:44:00,42.3,29.8,29.79,West,261,11.0,20.0,61,0.00,,BKN042,0.01,186.00,VWS V14.01,2013-02-11 18:44:00,
2013-02-11 13:49:00,42.3,30.2,29.78,WNW,290,6.0,13.0,62,0.00,,BKN042,0.01,227.00,VWS V14.01,2013-02-11 18:49:00,
2013-02-11 13:50:00,42.3,30.2,29.78,West,279,12.0,19.0,62,0.00,,,0.01,185.00,VWS V14.01,2013-02-11 18:50:00,
2013-02-11 13:54:00,42.1,29.6,29.79,NNW,327,8.0,25.0,61,0.00,,BKN042,0.01,149.00,VWS V14.01,2013-02-11 18:54:00,
2013-02-11 13:59:00,41.9,29.9,29.79,WNW,284,10.0,14.0,62,0.00,,BKN042,0.01,202.00,VWS V14.01,2013-02-11 18:59:00,
2013-02-11 14:00:00,41.9,29.9,29.79,WSW,246,17.0,17.0,62,0.00,,,0.01,234.00,VWS V14.01,2013-02-11 19:00:00,
2013-02-11 14:04:00,42.0,29.9,29.79,WNW,290,8.0,15.0,62,0.00,,BKN042,0.01,243.00,VWS V14.01,2013-02-11 19:04:00,
2013-02-11 14:09:00,42.1,29.6,29.78,SW,234,7.0,17.0,61,0.00,,BKN042,0.01,209.00,VWS V14.01,2013-02-11 19:09:00,
2013-02-11 14:10:00,42.2,29.7,29.79,WNW,284,9.0,10.0,61,0.00,,,0.01,251.00,VWS V14.01,2013-02-11 19:10:00,
2013-02-11 14:14:00,42.3,29.8,29.78,WSW,246,10.0,12.0,61,0.00,,BKN042,0.01,216.00,VWS V14.01,2013-02-11 19:14:00,
2013-02-11 14:19:00,42.4,29.5,29.78,West,275,8.0,10.0,60,0.00,,BKN042,0.01,185.00,VWS V14.01,2013-02-11 19:19:00,
2013-02-11 14:20:00,42.4,29.5,29.78,WSW,241,1.0,8.0,60,0.00,,,0.01,158.00,VWS V14.01,2013-02-11 19:20:00,
2013-02-11 14:24:00,42.4,29.1,29.79,West,274,16.0,22.0,59,0.00,,BKN042,0.01,123.00,VWS V14.01,2013-02-11 19:24:00,
2013-02-11 14:29:00,42.3,29.0,29.79,WSW,242,3.0,12.0,59,0.00,,BKN042,0.01,151.00,VWS V14.01,2013-02-11 19:29:00,
2013-02-11 14:30:00,42.3,29.0,29.79,WSW,243,2.0,10.0,59,0.00,,,0.01,153.00,VWS V14.01,2013-02-11 19:30:00,
2013-02-11 14:34:00,42.3,29.0,29.80,West,281,10.0,20.0,59,0.00,,BKN038,0.01,121.00,VWS V14.01,2013-02-11 19:34:00,
2013-02-11 14:39:00,42.2,28.9,29.79,NW,306,8.0,22.0,59,0.00,,BKN038,0.01,137.00,VWS V14.01,2013-02-11 19:39:00,
2013-02-11 14:40:00,42.2,28.9,29.79,WNW,286,22.0,22.0,59,0.00,,,0.01,192.00,VWS V14.01,2013-02-11 19:40:00,
2013-02-11 14:44:00,42.1,28.8,29.79,WSW,258,19.0,19.0,59,0.00,,BKN038,0.01,167.00,VWS V14.01,2013-02-11 19:44:00,
2013-02-11 14:49:00,42.2,28.5,29.79,WNW,284,9.0,19.0,58,0.00,,BKN038,0.01,153.00,VWS V14.01,2013-02-11 19:49:00,
2013-02-11 14:50:00,42.2,28.5,29.79,WSW,244,13.0,17.0,58,0.00,,,0.01,162.00,VWS V14.01,2013-02-11 19:50:00,
2013-02-11 14:54:00,42.1,28.4,29.79,WSW,256,10.0,22.0,58,0.00,,BKN038,0.01,176.00,VWS V14.01,2013-02-11 19:54:00,
2013-02-11 14:59:00,42.1,28.0,29.80,West,266,10.0,18.0,57,0.00,,BKN038,0.01,204.00,VWS V14.01,2013-02-11 19:59:00,
2013-02-11 15:00:00,42.1,28.0,29.80,WSW,247,17.0,25.0,57,0.00,,,0.01,204.00,VWS V14.01,2013-02-11 20:00:00,
2013-02-11 15:04:00,42.1,27.1,29.82,SSW,204,6.0,23.0,55,0.00,,BKN038,0.01,176.00,VWS V14.01,2013-02-11 20:04:00,
2013-02-11 15:09:00,42.1,27.1,29.80,WSW,244,27.0,27.0,55,0.00,,BKN038,0.01,144.00,VWS V14.01,2013-02-11 20:09:00,
2013-02-11 15:10:00,42.0,26.6,29.80,SSW,213,17.0,27.0,54,0.00,,,0.01,135.00,VWS V14.01,2013-02-11 20:10:00,
2013-02-11 15:14:00,41.6,26.6,29.81,West,259,19.0,23.0,55,0.00,,BKN038,0.01,98.00,VWS V14.01,2013-02-11 20:14:00,
2013-02-11 15:19:00,41.3,26.8,29.82,SSW,212,4.0,18.0,56,0.00,,BKN038,0.01,111.00,VWS V14.01,2013-02-11 20:19:00,
2013-02-11 15:20:00,41.3,26.8,29.82,West,271,18.0,18.0,56,0.00,,,0.01,107.00,VWS V14.01,2013-02-11 20:20:00,
2013-02-11 15:24:00,41.0,27.0,29.83,West,280,14.0,22.0,57,0.00,,BKN038,0.01,77.00,VWS V14.01,2013-02-11 20:24:00,
2013-02-11 15:29:00,40.5,26.9,29.83,WNW,303,18.0,24.0,58,0.00,,BKN038,0.01,65.00,VWS V14.01,2013-02-11 20:29:00,
2013-02-11 15:30:00,40.4,27.2,29.83,WSW,237,6.0,21.0,59,0.00,,,0.01,76.00,VWS V14.01,2013-02-11 20:30:00,
2013-02-11 15:34:00,40.0,27.2,29.83,West,276,6.0,19.0,60,0.00,,BKN042,0.01,44.00,VWS V14.01,2013-02-11 20:34:00,
2013-02-11 15:39:00,39.3,27.4,29.84,West,269,12.0,25.0,62,0.00,,BKN042,0.01,44.00,VWS V14.01,2013-02-11 20:39:00,
2013-02-11 15:40:00,39.3,27.4,29.84,WSW,251,6.0,17.0,62,0.00,,,0.01,44.00,VWS V14.01,2013-02-11 20:40:00,
2013-02-11 15:44:00,38.6,26.7,29.85,NW,320,10.0,14.0,62,0.00,,BKN042,0.01,35.00,VWS V14.01,2013-02-11 20:44:00,
2013-02-11 15:49:00,37.9,26.5,29.85,WSW,238,18.0,20.0,63,0.00,,BKN042,0.01,39.00,VWS V14.01,2013-02-11 20:49:00,
2013-02-11 15:50:00,37.8,26.4,29.85,SW,214,7.0,18.0,63,0.00,,,0.01,40.00,VWS V14.01,2013-02-11 20:50:00,
2013-02-11 15:54:00,37.5,25.7,29.86,West,279,11.0,26.0,62,0.00,,BKN042,0.01,39.00,VWS V14.01,2013-02-11 20:54:00,
2013-02-11 15:59:00,37.3,25.1,29.86,WSW,251,9.0,18.0,61,0.00,,BKN042,0.01,37.00,VWS V14.01,2013-02-11 20:59:00,
2013-02-11 16:00:00,37.3,25.1,29.87,SW,236,19.0,23.0,61,0.00,,,0.01,35.00,VWS V14.01,2013-02-11 21:00:00,
2013-02-11 16:04:00,37.2,24.6,29.87,SW,229,18.0,18.0,60,0.00,,BKN042,0.01,65.00,VWS V14.01,2013-02-11 21:04:00,
2013-02-11 16:09:00,37.2,25.0,29.87,WSW,252,6.0,16.0,61,0.00,,BKN042,0.01,51.00,VWS V14.01,2013-02-11 21:09:00,
2013-02-11 16:10:00,37.2,24.6,29.87,West,267,10.0,17.0,60,0.00,,,0.01,51.00,VWS V14.01,2013-02-11 21:10:00,
2013-02-11 16:14:00,37.2,24.6,29.87,WNW,292,14.0,14.0,60,0.00,,BKN042,0.01,62.00,VWS V14.01,2013-02-11 21:14:00,
2013-02-11 16:19:00,37.2,24.6,29.87,WNW,296,10.0,15.0,60,0.00,,BKN042,0.01,58.00,VWS V14.01,2013-02-11 21:19:00,
2013-02-11 16:20:00,37.2,24.6,29.87,SSW,198,4.0,15.0,60,0.00,,,0.01,58.00,VWS V14.01,2013-02-11 21:20:00,
2013-02-11 16:24:00,37.2,24.6,29.87,SSW,204,4.0,8.0,60,0.00,,BKN042,0.01,76.00,VWS V14.01,2013-02-11 21:24:00,
2013-02-11 16:29:00,37.3,24.7,29.87,West,278,14.0,14.0,60,0.00,,BKN042,0.01,125.00,VWS V14.01,2013-02-11 21:29:00,
2013-02-11 16:30:00,37.3,24.7,29.87,WNW,294,10.0,17.0,60,0.00,,,0.01,97.00,VWS V14.01,2013-02-11 21:30:00,
2013-02-11 16:34:00,37.4,24.4,29.87,West,263,5.0,18.0,59,0.00,,OVC033,0.01,84.00,VWS V14.01,2013-02-11 21:34:00,
2013-02-11 16:39:00,37.3,24.3,29.87,West,263,14.0,16.0,59,0.00,,OVC033,0.01,76.00,VWS V14.01,2013-02-11 21:39:00,
2013-02-11 16:40:00,37.3,24.7,29.87,WSW,252,10.0,16.0,60,0.00,,,0.01,67.00,VWS V14.01,2013-02-11 21:40:00,
2013-02-11 16:44:00,37.2,24.2,29.87,WSW,238,5.0,9.0,59,0.00,,OVC033,0.01,58.00,VWS V14.01,2013-02-11 21:44:00,
2013-02-11 16:49:00,37.1,24.1,29.87,WSW,258,7.0,11.0,59,0.00,,OVC033,0.01,42.00,VWS V14.01,2013-02-11 21:49:00,
2013-02-11 16:50:00,37.1,24.5,29.87,West,281,6.0,15.0,60,0.00,,,0.01,42.00,VWS V14.01,2013-02-11 21:50:00,
2013-02-11 16:54:00,37.1,24.5,29.87,WSW,254,15.0,17.0,60,0.00,,OVC033,0.01,53.00,VWS V14.01,2013-02-11 21:54:00,
2013-02-11 16:59:00,37.0,24.4,29.87,West,265,7.0,15.0,60,0.00,,OVC033,0.01,33.00,VWS V14.01,2013-02-11 21:59:00,
2013-02-11 17:00:00,37.0,24.4,29.87,West,272,3.0,12.0,60,0.00,,,0.01,33.00,VWS V14.01,2013-02-11 22:00:00,
2013-02-11 17:04:00,37.0,24.8,29.87,SW,230,8.0,17.0,61,0.00,,OVC033,0.01,70.00,VWS V14.01,2013-02-11 22:04:00,
2013-02-11 17:09:00,36.9,24.7,29.87,WNW,289,12.0,15.0,61,0.00,,OVC033,0.01,40.00,VWS V14.01,2013-02-11 22:09:00,
2013-02-11 17:10:00,36.9,24.7,29.87,WSW,249,15.0,15.0,61,0.00,,,0.01,37.00,VWS V14.01,2013-02-11 22:10:00,
2013-02-11 17:14:00,36.7,24.9,29.87,SW,215,10.0,11.0,62,0.00,,OVC033,0.01,42.00,VWS V14.01,2013-02-11 22:14:00,
2013-02-11 17:19:00,36.4,24.6,29.88,NW,305,13.0,15.0,62,0.00,,OVC033,0.01,44.00,VWS V14.01,2013-02-11 22:19:00,
2013-02-11 17:20:00,36.4,24.6,29.88,WNW,283,11.0,13.0,62,0.00,,,0.01,44.00,VWS V14.01,2013-02-11 22:20:00,
2013-02-11 17:24:00,36.4,24.6,29.87,West,271,10.0,22.0,62,0.00,,OVC033,0.01,26.00,VWS V14.01,2013-02-11 22:24:00,
2013-02-11 17:30:00,36.3,24.9,29.88,WNW,283,8.0,18.0,63,0.00,,OVC033,0.01,21.00,VWS V14.01,2013-02-11 22:30:00,
2013-02-11 17:35:00,36.1,24.7,29.88,WNW,290,10.0,16.0,63,0.00,,OVC033,0.01,19.00,VWS V14.01,2013-02-11 22:35:00,
2013-02-11 17:40:00,36.1,24.7,29.89,SW,236,9.0,15.0,63,0.00,,OVC033,0.01,14.00,VWS V14.01,2013-02-11 22:40:00,
2013-02-11 17:45:00,36.1,24.7,29.88,South,178,4.0,21.0,63,0.00,,OVC033,0.01,12.00,VWS V14.01,2013-02-11 22:45:00,
2013-02-11 17:50:00,35.9,24.9,29.89,WNW,290,4.0,9.0,64,0.00,,OVC033,0.01,7.00,VWS V14.01,2013-02-11 22:50:00,
2013-02-11 17:55:00,35.8,24.8,29.90,SW,236,13.0,16.0,64,0.00,,OVC033,0.01,5.00,VWS V14.01,2013-02-11 22:55:00,
2013-02-11 18:00:00,35.7,25.1,29.90,WSW,257,10.0,23.0,65,0.00,,OVC033,0.01,0.00,VWS V14.01,2013-02-11 23:00:00,
2013-02-11 18:05:00,35.7,24.7,29.89,West,275,6.0,14.0,64,0.00,,OVC033,0.01,0.00,VWS V14.01,2013-02-11 23:05:00,
2013-02-11 18:10:00,35.5,24.5,29.90,SW,217,8.0,17.0,64,0.00,,OVC033,0.01,0.00,VWS V14.01,2013-02-11 23:10:00,
2013-02-11 18:15:00,35.4,24.8,29.90,SW,232,8.0,14.0,65,0.00,,OVC033,0.01,0.00,VWS V14.01,2013-02-11 23:15:00,
2013-02-11 18:20:00,35.3,24.7,29.90,WNW,290,8.0,17.0,65,0.00,,OVC033,0.01,0.00,VWS V14.01,2013-02-11 23:20:00,
2013-02-11 18:25:00,35.2,24.6,29.90,West,261,13.0,13.0,65,0.00,,OVC033,0.01,0.00,VWS V14.01,2013-02-11 23:25:00,
2013-02-11 18:30:00,35.2,24.6,29.91,West,265,13.0,21.0,65,0.00,,OVC033,0.01,0.00,VWS V14.01,2013-02-11 23:30:00,
2013-02-11 18:35:00,35.3,24.4,29.91,West,269,12.0,16.0,64,0.00,,BKN038,0.01,0.00,VWS V14.01,2013-02-11 23:35:00,
2013-02-11 18:40:00,35.3,24.4,29.91,WNW,290,5.0,14.0,64,0.00,,BKN038,0.01,0.00,VWS V14.01,2013-02-11 23:40:00,
2013-02-11 18:45:00,35.3,24.4,29.91,West,263,8.0,16.0,64,0.00,,BKN038,0.01,0.00,VWS V14.01,2013-02-11 23:45:00,
2013-02-11 18:50:00,35.2,24.3,29.92,WSW,256,9.0,11.0,64,0.00,,BKN038,0.01,0.00,VWS V14.01,2013-02-11 23:50:00,
2013-02-11 18:55:00,35.1,24.5,29.92,West,280,9.0,16.0,65,0.00,,BKN038,0.01,0.00,VWS V14.01,2013-02-11 23:55:00,
2013-02-11 19:00:00,35.1,24.2,29.92,WNW,295,10.0,16.0,64,0.00,,BKN038,0.01,0.00,VWS V14.01,2013-02-12 00:00:00,
2013-02-11 19:05:00,34.9,24.3,29.92,WSW,245,10.0,16.0,65,0.00,,BKN038,0.01,0.00,VWS V14.01,2013-02-12 00:05:00,
2013-02-11 19:10:00,34.7,24.1,29.92,WNW,300,3.0,9.0,65,0.00,,BKN038,0.01,0.00,VWS V14.01,2013-02-12 00:10:00,
2013-02-11 19:15:00,34.4,24.2,29.92,WSW,258,8.0,15.0,66,0.00,,BKN038,0.01,0.00,VWS V14.01,2013-02-12 00:15:00,
2013-02-11 19:20:00,34.5,24.0,29.92,West,276,12.0,16.0,65,0.00,,BKN038,0.01,0.00,VWS V14.01,2013-02-12 00:20:00,
2013-02-11 19:25:00,34.5,24.0,29.92,WNW,284,9.0,12.0,65,0.00,,BKN038,0.01,0.00,VWS V14.01,2013-02-12 00:25:00,
2013-02-11 19:30:00,34.4,23.9,29.92,SW,227,15.0,15.0,65,0.00,,BKN038,0.01,0.00,VWS V14.01,2013-02-12 00:30:00,
2013-02-11 19:35:00,34.4,23.5,29.92,West,269,10.0,22.0,64,0.00,,BKN029,0.01,0.00,VWS V14.01,2013-02-12 00:35:00,
2013-02-11 19:40:00,34.4,23.5,29.92,WNW,290,5.0,10.0,64,0.00,,BKN029,0.01,0.00,VWS V14.01,2013-02-12 00:40:00,
2013-02-11 19:45:00,34.4,23.1,29.92,WSW,246,6.0,14.0,63,0.00,,BKN029,0.01,0.00,VWS V14.01,2013-02-12 00:45:00,
2013-02-11 19:50:00,34.4,23.1,29.93,West,273,18.0,21.0,63,0.00,,BKN029,0.01,0.00,VWS V14.01,2013-02-12 00:50:00,
2013-02-11 19:55:00,34.4,23.1,29.93,WNW,288,11.0,12.0,63,0.00,,BKN029,0.01,0.00,VWS V14.01,2013-02-12 00:55:00,
2013-02-11 20:00:00,34.6,22.9,29.92,WSW,242,8.0,12.0,62,0.00,,BKN029,0.01,0.00,VWS V14.01,2013-02-12 01:00:00,
2013-02-11 20:05:00,34.6,22.9,29.93,WSW,255,1.0,11.0,62,0.00,,BKN029,0.01,0.00,VWS V14.01,2013-02-12 01:05:00,
2013-02-11 20:10:00,34.7,23.0,29.93,NW,311,13.0,17.0,62,0.00,,BKN029,0.01,0.00,VWS V14.01,2013-02-12 01:10:00,
2013-02-11 20:15:00,34.8,23.1,29.93,West,273,5.0,16.0,62,0.00,,BKN029,0.01,0.00,VWS V14.01,2013-02-12 01:15:00,
2013-02-11 20:20:00,34.7,23.0,29.93,West,271,6.0,17.0,62,0.00,,BKN029,0.01,0.00,VWS V14.01,2013-02-12 01:20:00,
2013-02-11 20:25:00,34.7,23.0,29.93,WNW,285,3.0,13.0,62,0.00,,BKN029,0.01,0.00,VWS V14.01,2013-02-12 01:25:00,
2013-02-11 20:30:00,34.7,23.0,29.93,West,278,4.0,13.0,62,0.00,,BKN029,0.01,0.00,VWS V14.01,2013-02-12 01:30:00,
2013-02-11 20:35:00,34.7,23.4,29.93,SW,228,6.0,20.0,63,0.00,,BKN029,0.01,0.00,VWS V14.01,2013-02-12 01:35:00,
2013-02-11 20:40:00,34.7,23.4,29.93,WNW,289,12.0,15.0,63,0.00,,BKN029,0.01,0.00,VWS V14.01,2013-02-12 01:40:00,
2013-02-11 20:45:00,34.7,24.9,29.93,WSW,250,9.0,22.0,67,0.00,,BKN029,0.01,0.00,VWS V14.01,2013-02-12 01:45:00,
2013-02-11 20:50:00,34.7,23.4,29.93,West,276,7.0,15.0,63,0.00,,BKN029,0.01,0.00,VWS V14.01,2013-02-12 01:50:00,
2013-02-11 20:55:00,34.7,23.0,29.94,West,279,5.0,13.0,62,0.00,,BKN029,0.01,0.00,VWS V14.01,2013-02-12 01:55:00,
2013-02-11 21:00:00,34.7,23.0,29.94,SW,222,16.0,16.0,62,0.00,,BKN029,0.01,0.00,VWS V14.01,2013-02-12 02:00:00,
2013-02-11 21:05:00,34.7,23.0,29.95,WSW,238,13.0,14.0,62,0.00,,BKN029,0.01,0.00,VWS V14.01,2013-02-12 02:05:00,
2013-02-11 21:10:00,34.7,23.0,29.94,SW,234,3.0,10.0,62,0.00,,BKN029,0.01,0.00,VWS V14.01,2013-02-12 02:10:00,
2013-02-11 21:15:00,34.7,23.0,29.95,West,271,4.0,14.0,62,0.00,,BKN029,0.01,0.00,VWS V14.01,2013-02-12 02:15:00,
2013-02-11 21:20:00,34.7,23.4,29.95,West,279,9.0,13.0,63,0.00,,BKN029,0.01,0.00,VWS V14.01,2013-02-12 02:20:00,
2013-02-11 21:26:00,34.7,23.4,29.95,WNW,290,8.0,13.0,63,0.00,,BKN029,0.01,0.00,VWS V14.01,2013-02-12 02:26:00,
2013-02-11 21:30:00,34.7,24.9,29.95,West,265,6.0,12.0,67,0.00,,,0.01,0.00,VWS V14.01,2013-02-12 02:30:00,
2013-02-11 21:31:00,34.7,24.9,29.95,WNW,300,13.0,14.0,67,0.00,,BKN029,0.01,0.00,VWS V14.01,2013-02-12 02:31:00,
2013-02-11 21:36:00,34.7,23.4,29.95,West,267,7.0,10.0,63,0.00,,OVC029,0.01,0.00,VWS V14.01,2013-02-12 02:36:00,
2013-02-11 21:40:00,34.6,22.5,29.95,WNW,284,8.0,16.0,61,0.00,,FEW250,0.01,0.00,VWS V14.01,2013-02-12 02:40:00,
2013-02-11 21:41:00,34.6,23.3,29.95,WNW,284,7.0,8.0,63,0.00,,OVC029,0.01,0.00,VWS V14.01,2013-02-12 02:41:00,
2013-02-11 21:46:00,34.6,23.3,29.95,WSW,243,9.0,9.0,63,0.00,,OVC029,0.01,0.00,VWS V14.01,2013-02-12 02:46:00,
2013-02-11 21:50:00,34.6,23.3,29.95,SW,219,7.0,9.0,63,0.00,,,0.01,0.00,VWS V14.01,2013-02-12 02:50:00,
2013-02-11 21:51:00,34.6,23.3,29.95,West,269,2.0,9.0,63,0.00,,OVC029,0.01,0.00,VWS V14.01,2013-02-12 02:51:00,
2013-02-11 21:56:00,34.6,23.3,29.95,West,275,4.0,13.0,63,0.00,,OVC029,0.01,0.00,VWS V14.01,2013-02-12 02:56:00,
2013-02-11 22:00:00,34.6,23.3,29.95,WSW,252,3.0,10.0,63,0.00,,,0.01,0.00,VWS V14.01,2013-02-12 03:00:00,
2013-02-11 22:01:00,34.6,23.3,29.95,West,273,5.0,12.0,63,0.00,,OVC029,0.01,0.00,VWS V14.01,2013-02-12 03:01:00,
2013-02-11 22:06:00,34.6,23.7,29.95,SW,229,2.0,6.0,64,0.00,,OVC029,0.01,0.00,VWS V14.01,2013-02-12 03:06:00,
2013-02-11 22:10:00,34.6,23.7,29.96,WSW,241,7.0,16.0,64,0.00,,,0.01,0.00,VWS V14.01,2013-02-12 03:10:00,
2013-02-11 22:11:00,34.6,23.7,29.96,WSW,252,12.0,12.0,64,0.00,,OVC029,0.01,0.00,VWS V14.01,2013-02-12 03:11:00,
2013-02-11 22:16:00,34.6,23.7,29.95,SW,234,7.0,9.0,64,0.00,,OVC029,0.01,0.00,VWS V14.01,2013-02-12 03:16:00,
2013-02-11 22:20:00,34.6,23.7,29.96,WSW,256,9.0,13.0,64,0.00,,,0.01,0.00,VWS V14.01,2013-02-12 03:20:00,
2013-02-11 22:21:00,34.6,23.7,29.96,WSW,246,7.0,10.0,64,0.00,,OVC029,0.01,0.00,VWS V14.01,2013-02-12 03:21:00,
2013-02-11 22:26:00,34.5,23.6,29.95,West,277,5.0,5.0,64,0.00,,OVC029,0.01,0.00,VWS V14.01,2013-02-12 03:26:00,
2013-02-11 22:30:00,34.5,22.8,29.95,West,269,9.0,16.0,62,0.00,,,0.01,0.00,VWS V14.01,2013-02-12 03:30:00,
2013-02-11 22:31:00,34.5,22.8,29.95,West,269,5.0,12.0,62,0.00,,OVC029,0.01,0.00,VWS V14.01,2013-02-12 03:31:00,
2013-02-11 22:36:00,34.6,22.9,29.96,West,280,16.0,21.0,62,0.00,,OVC029,0.01,0.00,VWS V14.01,2013-02-12 03:36:00,
2013-02-11 22:40:00,34.6,22.5,29.95,WNW,284,8.0,16.0,61,0.00,,,0.01,0.00,VWS V14.01,2013-02-12 03:40:00,
2013-02-11 22:41:00,34.6,22.5,29.96,SW,224,13.0,13.0,61,0.00,,OVC029,0.01,0.00,VWS V14.01,2013-02-12 03:41:00,
2013-02-11 22:46:00,34.5,22.5,29.95,WSW,251,13.0,13.0,61,0.00,,OVC029,0.01,0.00,VWS V14.01,2013-02-12 03:46:00,
2013-02-11 22:50:00,34.4,22.4,29.96,West,276,10.0,14.0,61,0.00,,,0.01,0.00,VWS V14.01,2013-02-12 03:50:00,
2013-02-11 22:51:00,34.4,22.4,29.96,SW,219,3.0,12.0,61,0.00,,OVC029,0.01,0.00,VWS V14.01,2013-02-12 03:51:00,
2013-02-11 22:56:00,34.4,22.7,29.96,WSW,256,4.0,14.0,62,0.00,,OVC029,0.01,0.00,VWS V14.01,2013-02-12 03:56:00,
2013-02-11 23:00:00,34.4,22.7,29.96,WNW,292,8.0,9.0,62,0.00,,,0.01,0.00,VWS V14.01,2013-02-12 04:00:00,
2013-02-11 23:01:00,34.4,23.1,29.96,WNW,284,6.0,11.0,63,0.00,,OVC029,0.01,0.00,VWS V14.01,2013-02-12 04:01:00,
2013-02-11 23:06:00,34.1,22.8,29.96,West,275,11.0,14.0,63,0.00,,OVC029,0.01,0.00,VWS V14.01,2013-02-12 04:06:00,
2013-02-11 23:10:00,33.8,22.6,29.97,WNW,300,13.0,21.0,63,0.00,,,0.01,0.00,VWS V14.01,2013-02-12 04:10:00,
2013-02-11 23:11:00,33.8,22.5,29.97,West,275,15.0,19.0,63,0.00,,OVC029,0.01,0.00,VWS V14.01,2013-02-12 04:11:00,
2013-02-11 23:16:00,33.7,22.1,29.97,West,271,17.0,22.0,62,0.00,,OVC029,0.01,0.00,VWS V14.01,2013-02-12 04:16:00,
2013-02-11 23:20:00,33.6,21.6,29.97,WNW,295,17.0,19.0,61,0.00,,,0.01,0.00,VWS V14.01,2013-02-12 04:20:00,
2013-02-11 23:21:00,33.6,21.6,29.97,WNW,296,6.0,19.0,61,0.00,,OVC029,0.01,0.00,VWS V14.01,2013-02-12 04:21:00,
2013-02-11 23:26:00,33.5,21.5,29.97,SSW,213,3.0,14.0,61,0.00,,OVC029,0.01,0.00,VWS V14.01,2013-02-12 04:26:00,
2013-02-11 23:30:00,33.4,21.4,29.98,WNW,299,4.0,11.0,61,0.00,,,0.01,0.00,VWS V14.01,2013-02-12 04:30:00,
2013-02-11 23:31:00,33.4,21.4,29.98,WNW,296,11.0,16.0,61,0.00,,OVC029,0.01,0.00,VWS V14.01,2013-02-12 04:31:00,
2013-02-11 23:36:00,33.3,21.3,29.98,SW,234,7.0,17.0,61,0.00,,OVC028,0.01,0.00,VWS V14.01,2013-02-12 04:36:00,
2013-02-11 23:40:00,33.2,20.8,29.98,West,273,21.0,21.0,60,0.00,,,0.01,0.00,VWS V14.01,2013-02-12 04:40:00,
2013-02-11 23:41:00,33.2,20.8,29.98,NNW,340,9.0,14.0,60,0.00,,OVC028,0.01,0.00,VWS V14.01,2013-02-12 04:41:00,
2013-02-11 23:46:00,33.1,20.7,29.98,WNW,300,17.0,28.0,60,0.00,,OVC028,0.01,0.00,VWS V14.01,2013-02-12 04:46:00,
2013-02-11 23:50:00,33.1,20.7,29.99,WSW,238,7.0,21.0,60,0.00,,,0.01,0.00,VWS V14.01,2013-02-12 04:50:00,
2013-02-11 23:51:00,33.0,20.6,29.99,WSW,238,6.0,14.0,60,0.00,,OVC028,0.01,0.00,VWS V14.01,2013-02-12 04:51:00,
2013-02-11 23:56:00,32.9,20.9,29.99,West,278,9.0,21.0,61,0.00,,OVC028,0.01,0.00,VWS V14.01,2013-02-12 04:56:00,